Torna al catalogo

CUBY-1

AttivoScienzaSSO
NORAD 69902·PAYLOAD·🇦🇹 Austria

Lanciato Jul 7, 2026 da Vandenberg Space Force Base

Loading…

Prossimi Passaggi (prossime 24 ore)

TLE

AggiornatoSource: Space-Track

Epoca: Sep 14, 2026, 04:39 UTC

1 69902U 26156AK  26257.19413801  .00001523  00000-0  15906-3 0  9990
2 69902  97.7415 156.3858 0002506 258.5929 101.5008 14.91158958 10265

Traccia CUBY-1 in tempo reale con AllMySat

Download on the App Store